Terminal Aerodrome Forecast
Issued by NWS

Current Version | Previous Version | Graphics & Text | Print | Product List | Glossary On
Versions: 1 2 3 4 5 6 7 8 9 10 11 12 13 14 15 16 17 18 19
000
FTUS41 KPBZ 291500 AAA
TAFMGW
TAF AMD
KMGW 291513Z 2915/3012 16006KT P6SM BKN080
     FM291600 18007KT 5SM -SHRA OVC035
     FM292100 20012G19KT 4SM -SHRA OVC010
     FM300400 27012G22KT 3SM -SHSN OVC008=

USA.gov is the U.S. government's official web portal to all federal, state and local government web resources and services.